Theta_e
310 310 310 311 311 312 312 312 311 310 309 308 309 310 310 308 311 309 311 310 313 318 326 329 328 326 325 324 323 324 332 335 330 325 324 319 332 329 328 331 332 330 327 328 329
309 309 310 310 310 310 312 313 312 312 312 312 311 311 312 309 312 310 308 310 314 318 321 328 329 326 327 325 327 329 330 331 316 316 320 319 326 332 333 334 334 330 327 329 328
308 307 306 308 309 310 309 311 310 310 311 313 312 312 313 311 310 309 308 308 316 317 319 327 328 327 328 327 328 330 329 321 318 323 319 320 330 329 333 335 333 332 332 329 327
307 306 305 305 307 309 310 311 310 311 313 311 311 313 313 311 304 314 314 315 315 320 320 325 327 329 329 330 327 331 326 318 323 321 319 321 325 328 328 329 327 328 328 327 326
306 305 305 305 306 307 310 310 311 312 313 313 311 313 312 312 310 312 313 315 316 318 322 325 329 329 330 328 325 328 325 325 322 321 318 319 324 328 327 328 327 328 328 327 326
303 304 304 304 306 307 307 310 310 310 313 314 313 312 310 311 310 311 311 315 316 314 321 323 328 327 327 326 329 323 324 326 324 323 319 321 321 324 327 328 328 328 328 327 327
299 301 302 303 306 307 308 308 310 312 313 313 312 312 309 310 311 311 311 316 316 315 322 321 327 327 324 326 321 324 329 328 327 324 322 317 326 324 325 328 329 328 326 326 325
296 298 300 301 304 307 307 310 311 312 313 313 312 310 310 311 311 311 312 315 316 315 318 322 326 321 324 321 324 329 330 333 328 325 321 325 331 322 327 329 330 328 326 326 325
295 295 298 300 304 307 307 310 310 310 311 311 313 312 315 311 312 312 313 315 316 317 318 322 325 322 322 328 330 330 334 333 330 325 322 326 329 317 324 328 329 330 327 326 326
294 294 296 298 304 307 307 309 310 311 311 311 312 312 311 313 311 312 313 316 316 315 317 320 325 327 327 331 336 334 333 332 331 326 324 323 325 316 319 326 327 326 325 326 326
294 294 294 295 304 307 306 311 306 308 309 312 312 313 313 312 312 314 313 318 316 317 322 323 327 332 330 329 328 329 331 332 329 325 329 329 327 322 314 319 324 322 323 323 324
295 294 294 295 307 307 305 303 305 305 311 311 312 312 311 311 316 315 315 321 319 317 323 325 327 327 328 326 328 329 331 329 327 324 328 327 329 324 314 313 317 319 317 320 320
298 294 294 297 307 306 303 302 302 303 311 313 312 312 310 314 317 317 315 318 321 324 321 321 323 325 328 330 330 330 330 326 328 325 321 322 326 323 315 312 310 311 312 314 319
300 294 294 298 305 304 302 301 302 303 306 308 312 311 313 314 318 314 313 317 318 322 323 321 318 326 329 329 329 332 327 326 326 328 333 324 335 325 318 312 310 311 310 311 312
303 296 294 300 304 302 302 302 303 303 309 307 311 310 312 316 316 315 313 315 318 317 320 317 319 327 329 329 327 329 325 326 326 328 327 324 329 328 316 314 312 312 310 310 310
305 300 294 298 302 302 301 304 301 302 308 309 311 314 315 315 316 315 316 314 314 317 315 315 313 316 321 321 324 321 323 322 322 324 330 328 329 329 318 318 316 312 311 310 309
307 301 295 295 299 301 303 297 298 303 304 312 312 315 315 314 316 317 317 317 320 322 319 316 317 315 314 322 321 323 326 327 328 327 332 318 326 330 320 315 318 316 311 308 308
307 303 295 296 299 300 298 298 295 294 305 309 311 315 317 313 316 316 318 319 316 317 319 322 323 313 312 317 323 324 327 329 332 329 326 315 326 326 316 313 312 311 310 308 307
307 302 295 298 297 302 297 295 298 297 305 310 312 314 316 315 316 317 316 318 315 314 321 320 318 311 313 313 316 320 325 316 316 308 315 317 314 308 307 307 308 309 309 309 308
305 295 294 297 298 298 296 299 299 298 305 307 313 311 316 315 316 318 318 313 315 311 310 314 318 311 313 314 313 316 314 321 319 325 322 317 311 315 309 308 308 309 309 308 307
300 297 296 297 301 295 299 292 299 299 303 307 308 310 311 314 314 316 317 313 312 311 313 314 315 314 314 316 317 316 317 316 319 319 320 322 321 305 304 303 306 308 309 308 306
296 308 298 301 295 282 292 289 299 302 304 305 305 306 309 310 313 314 315 312 310 312 317 313 315 317 314 306 310 313 316 317 324 320 314 313 314 302 303 303 303 307 307 305 303
300 301 298 297 308 292 289 297 298 302 304 305 305 304 303 307 306 309 308 304 307 313 313 311 310 313 315 312 309 316 314 315 312 309 313 311 315 303 305 307 307 306 304 303 301
299 304 298 296 290 295 296 300 299 298 302 303 304 304 303 303 302 304 305 305 305 306 306 305 307 310 314 312 310 313 312 313 314 314 313 309 307 306 304 307 307 305 303 302 301
299 304 298 302 297 295 297 297 299 300 300 301 304 303 303 299 299 304 305 305 304 305 303 302 299 303 305 304 306 308 308 312 316 315 313 314 309 311 307 305 304 305 302 301 301
300 301 296 297 296 296 297 297 301 300 301 300 299 302 301 301 302 303 304 304 307 303 305 299 299 299 297 300 300 300 303 307 312 313 314 313 313 309 308 303 304 303 302 302 302
296 296 300 300 297 296 295 298 298 299 299 300 302 301 300 300 298 298 296 297 300 301 302 299 294 294 299 292 292 297 299 303 306 307 311 313 312 308 308 306 304 302 302 303 303
Wind_Speed
15 16 16 15 16 15 14 14 14 13 11 11 11 10 11 15 13 9 10 10 13 13 14 24 16 16 10 4 3 1 4 3 4 4 4 3 2 2 1 5 2 1 4 8 24
14 16 17 17 17 15 13 14 15 16 16 17 16 14 13 9 16 15 18 15 18 17 18 27 12 8 4 3 2 3 8 7 0 2 4 4 1 4 3 3 2 3 5 24 24
14 16 18 19 17 17 15 16 16 18 18 17 18 19 16 7 3 6 8 21 17 17 24 23 23 6 5 4 3 1 13 6 3 2 4 2 0 2 7 3 4 5 12 20 24
13 16 18 21 19 17 17 16 16 16 16 14 11 13 13 11 7 4 2 9 16 13 16 12 12 7 6 11 5 7 8 8 6 2 5 0 2 2 1 1 3 6 17 20 18
13 17 18 20 19 19 18 17 16 15 15 14 8 3 13 5 7 4 5 8 14 13 18 14 18 11 12 11 7 5 4 7 7 2 6 6 1 3 1 4 0 15 16 16 16
14 17 18 19 20 19 19 15 18 18 12 12 7 14 5 9 9 8 13 7 18 21 16 15 16 9 9 9 10 5 5 6 4 3 4 3 2 2 2 2 7 14 13 14 14
14 16 18 19 21 20 22 15 15 14 8 7 2 14 4 9 8 8 11 7 16 21 5 21 12 6 8 8 4 6 8 3 4 1 2 3 2 1 1 3 7 8 8 10 8
15 17 17 19 21 23 22 6 7 8 7 1 7 8 6 5 13 16 12 10 18 22 10 22 11 8 5 11 5 5 4 9 4 5 2 1 4 1 2 5 6 8 6 6 6
15 17 18 19 20 21 23 10 9 12 11 5 2 6 4 10 6 11 9 7 17 12 17 22 15 4 4 10 5 3 5 10 4 2 4 2 3 3 4 5 5 6 6 6 6
16 16 17 20 20 19 20 15 6 6 4 4 3 4 5 3 9 7 7 12 12 8 12 3 3 5 6 13 14 8 7 6 5 9 4 4 4 3 4 6 6 7 7 6 7
17 19 17 18 20 15 18 6 6 5 6 2 5 5 9 16 11 4 1 22 14 7 11 1 3 11 18 14 8 10 7 8 2 5 4 7 10 10 8 5 7 7 6 7 7
16 18 17 17 15 11 8 5 2 3 5 6 6 5 8 8 4 13 10 3 10 9 7 5 1 3 11 8 9 16 13 4 4 4 2 2 15 7 7 5 7 10 9 8 5
17 18 19 16 9 6 10 5 2 1 1 5 3 2 6 7 5 9 7 2 15 11 15 5 1 4 5 8 10 5 14 6 5 5 3 2 6 10 5 4 5 7 6 6 10
16 16 18 16 2 6 3 5 2 2 3 7 5 2 3 4 4 4 5 2 3 7 10 2 2 14 6 7 5 5 7 11 14 9 4 6 6 7 11 10 8 11 9 7 8
16 16 16 10 5 2 6 6 1 0 5 8 8 6 3 3 3 7 5 6 7 6 5 2 2 11 15 9 12 0 2 12 8 6 2 5 3 3 4 7 12 16 13 10 9
13 15 15 6 5 4 9 4 2 5 3 6 4 7 4 5 3 5 4 6 0 7 11 4 1 4 3 5 4 12 6 7 4 3 6 7 8 4 6 10 9 13 15 13 11
10 12 12 9 4 9 8 2 5 6 3 6 4 5 4 5 6 6 5 5 2 4 2 2 4 2 6 7 3 5 6 2 1 4 6 2 7 12 7 8 12 15 15 11 10
10 9 10 7 7 7 3 5 6 3 5 1 3 2 7 7 4 5 3 3 5 4 3 3 3 7 6 3 3 6 6 4 6 4 3 2 6 6 4 7 6 6 10 12 11
9 8 5 4 5 4 4 4 6 5 2 2 1 4 3 3 4 3 3 3 4 3 3 4 2 3 6 4 3 3 3 3 4 2 2 4 5 10 1 5 3 4 10 13 15
4 3 3 3 2 2 4 4 2 2 2 1 1 0 2 4 5 5 3 2 2 5 5 2 5 3 3 3 9 5 4 4 1 4 4 3 4 5 4 5 6 7 9 11 12
4 2 4 2 1 4 2 6 4 3 1 3 3 1 2 1 0 2 2 2 1 2 4 2 3 2 1 0 4 3 2 3 2 1 3 1 4 5 7 6 8 9 10 13 14
6 2 2 7 3 1 2 5 1 2 2 3 2 3 4 4 2 2 2 1 2 1 2 1 3 3 1 1 2 2 2 3 3 4 2 2 5 3 8 8 6 8 9 9 11
3 1 2 2 2 2 4 2 2 3 4 3 5 4 3 3 2 2 2 2 1 1 2 3 1 3 1 2 2 3 4 2 0 2 4 4 4 1 4 3 4 8 8 10 11
3 3 2 3 1 6 4 3 3 1 3 1 3 2 4 4 3 6 4 0 1 2 4 2 2 4 5 4 5 5 8 11 4 3 4 5 6 7 5 3 3 5 7 10 11
2 3 3 4 4 4 4 4 3 3 2 1 2 6 5 3 1 4 2 2 2 1 3 3 2 1 2 4 1 2 4 13 12 10 7 8 12 15 3 5 5 8 8 8 10
5 4 2 3 3 7 4 7 10 4 7 5 4 4 4 5 6 6 5 4 3 2 3 2 1 1 3 4 4 3 6 10 15 8 15 12 16 9 11 3 4 8 10 12 15
4 3 2 7 5 5 5 7 9 7 5 3 7 5 3 4 4 3 5 5 3 6 3 2 4 3 4 4 3 5 10 13 6 5 9 8 8 2 4 8 10 9 11 16 18
Wind_Direction
3 7 5 357 352 352 349 343 341 336 320 307 306 285 279 289 298 277 251 225 233 249 257 171 165 160 131 115 159 168 111 201 209 196 124 313 144 28 24 122 101 59 144 152 154
356 356 353 354 346 336 331 329 328 319 310 304 289 276 270 278 288 248 243 242 231 238 259 168 171 170 98 111 60 134 174 199 224 253 108 290 81 161 139 137 98 63 83 134 149
354 359 358 349 344 337 326 321 314 313 310 301 288 276 259 253 281 261 239 231 240 253 246 197 165 150 118 146 125 126 189 157 197 268 128 17 209 149 137 226 195 171 151 151 161
352 352 352 353 353 349 341 324 319 320 317 316 295 281 224 176 224 142 215 226 236 233 245 259 171 175 145 154 129 144 200 144 180 270 104 214 271 128 200 185 296 162 162 159 170
340 342 351 354 354 355 345 340 335 326 324 315 313 249 168 195 241 247 339 257 226 218 231 248 178 179 167 155 113 134 144 124 136 126 51 143 203 167 111 339 54 141 160 170 173
339 338 349 351 351 357 354 342 338 330 340 343 294 161 169 230 244 263 347 271 197 196 252 256 187 184 137 147 158 127 118 127 148 105 68 98 318 223 62 79 109 152 167 177 182
338 337 347 345 349 348 344 341 331 335 344 13 93 180 262 229 225 265 337 268 215 198 271 252 205 131 125 115 134 129 118 101 193 120 95 213 142 171 12 112 137 158 170 175 174
332 334 342 342 345 344 346 330 344 356 341 41 175 203 249 264 285 275 297 261 198 196 281 295 180 91 96 112 97 120 118 177 188 140 274 116 250 198 126 137 156 173 170 174 179
329 332 335 337 343 343 346 305 271 298 316 301 255 220 249 308 265 265 253 221 177 185 261 282 127 113 97 128 126 180 159 167 186 186 127 179 222 167 164 157 182 188 188 184 198
334 330 334 335 340 339 342 325 285 294 339 261 269 311 268 249 273 258 236 196 122 129 285 311 117 134 150 170 187 159 123 158 152 181 174 159 229 217 205 180 205 203 207 198 210
341 337 333 336 337 341 345 336 17 350 33 253 285 262 282 300 278 252 26 134 120 126 230 126 319 179 170 181 139 143 131 148 134 155 150 218 238 214 200 189 217 229 207 207 214
338 341 339 338 337 355 18 72 82 288 315 252 257 251 259 287 318 13 23 132 117 181 190 191 70 79 133 115 152 151 174 143 61 107 115 324 262 244 178 212 202 216 213 207 177
333 342 343 339 333 356 68 79 305 233 259 283 265 323 306 331 19 5 4 85 157 167 186 192 102 154 143 136 153 159 173 167 136 131 42 117 261 246 229 203 210 239 245 191 193
330 338 346 344 355 353 58 20 324 191 52 309 343 30 327 331 3 7 1 129 120 138 146 172 261 173 168 176 172 163 173 153 134 149 211 189 263 221 206 212 210 222 217 213 189
325 333 345 353 330 3 328 344 320 123 37 309 314 306 296 60 280 2 336 23 84 74 154 148 202 181 163 177 167 317 156 151 163 149 175 183 264 235 136 227 229 223 212 206 198
316 327 335 335 321 325 328 338 134 39 309 334 300 335 339 360 39 315 43 52 354 53 54 86 25 19 62 59 136 138 84 49 60 57 247 198 194 232 179 211 231 216 213 193 177
297 315 327 322 315 325 330 51 31 90 312 332 322 342 342 350 17 18 33 32 65 118 63 35 27 55 29 84 26 113 126 27 136 189 243 350 205 253 247 240 228 214 206 179 162
274 298 303 299 307 329 322 47 60 256 256 307 308 325 11 349 50 20 28 40 47 15 98 110 147 5 349 23 130 145 161 155 184 195 176 2 236 244 266 293 228 205 178 159 158
258 279 274 263 308 335 63 38 205 196 196 277 14 2 358 360 351 21 45 37 39 346 120 134 78 315 46 48 347 141 119 85 104 39 69 208 276 287 7 278 310 172 156 169 168
227 252 225 271 296 45 71 236 226 184 178 290 124 65 336 345 1 14 12 342 3 13 17 110 94 8 12 352 33 60 130 98 22 161 231 245 258 246 325 285 230 192 188 175 169
170 312 167 165 121 50 164 221 238 249 199 174 200 158 211 189 61 4 358 333 344 3 38 82 81 20 101 160 162 131 151 73 123 174 178 303 260 211 255 261 248 207 184 176 170
125 200 143 155 52 359 158 195 329 257 201 262 169 178 204 173 172 215 201 159 298 173 103 94 106 103 68 358 353 54 155 160 176 202 240 137 274 220 269 270 231 182 167 163 168
162 182 55 34 199 259 296 260 247 194 211 207 215 198 195 188 129 205 216 321 207 243 145 196 92 102 36 354 357 225 189 199 135 95 207 160 257 193 328 30 151 156 161 165 163
142 146 354 76 301 141 160 191 234 204 269 227 274 168 157 159 220 177 170 303 120 113 33 78 151 189 180 162 134 201 203 195 181 164 182 212 282 281 276 328 160 166 168 169 179
153 212 209 174 252 168 165 135 152 233 254 255 282 237 171 132 89 180 135 106 11 96 82 108 154 345 47 55 6 228 180 190 208 215 196 213 213 246 235 219 203 191 165 171 186
151 149 319 131 123 119 192 216 179 191 151 254 190 205 210 159 183 196 142 189 176 70 122 33 204 110 354 23 34 300 250 208 218 233 247 261 279 244 263 186 182 193 181 192 202
134 114 187 145 155 121 211 188 199 145 244 211 196 124 175 223 137 83 79 65 98 146 132 101 129 73 279 359 350 325 226 205 196 222 211 206 242 215 267 234 235 216 200 207 207